Time,TemperatureF,DewpointF,PressureIn,WindDirection,WindDirectionDegrees,WindSpeedMPH,WindSpeedGustMPH,Humidity,HourlyPrecipIn,Conditions,Clouds,dailyrainin,SoftwareType,DateUTC
2013-10-01 00:00:00,47.0,46.0,29.44,SSE,157,3.0,4.0,97,0.00,,,0.00,Rainwise IP-100,2013-10-01 04:00:00,
2013-10-01 00:01:00,47.0,46.0,29.44,SSE,157,3.0,3.0,97,0.00,,,0.00,Rainwise IP-100,2013-10-01 04:01:00,
2013-10-01 00:06:00,47.0,46.0,29.44,SSE,157,0.0,3.0,97,0.00,,,0.00,Rainwise IP-100,2013-10-01 04:06:00,
2013-10-01 00:11:00,47.0,46.0,29.44,SSE,157,2.0,2.0,97,0.00,,,0.00,Rainwise IP-100,2013-10-01 04:11:00,
2013-10-01 00:16:00,47.0,46.0,29.44,SSE,157,2.0,2.0,97,0.00,,,0.00,Rainwise IP-100,2013-10-01 04:16:00,
2013-10-01 00:21:00,47.0,46.0,29.44,SSE,157,1.0,2.0,97,0.00,,,0.00,Rainwise IP-100,2013-10-01 04:21:00,
2013-10-01 00:26:00,47.0,46.0,29.43,SSE,157,0.0,2.0,97,0.00,,,0.00,Rainwise IP-100,2013-10-01 04:26:00,
2013-10-01 00:31:00,47.0,46.0,29.43,SSE,157,0.0,0.0,97,0.00,,,0.00,Rainwise IP-100,2013-10-01 04:31:00,
2013-10-01 00:36:00,47.0,46.0,29.43,SSE,157,0.0,0.0,97,0.00,,,0.00,Rainwise IP-100,2013-10-01 04:36:00,
2013-10-01 00:41:00,46.0,45.0,29.43,SSE,157,0.0,0.0,97,0.00,,,0.00,Rainwise IP-100,2013-10-01 04:41:00,
2013-10-01 00:46:00,46.0,45.0,29.43,SSE,157,0.0,0.0,97,0.00,,,0.00,Rainwise IP-100,2013-10-01 04:46:00,
2013-10-01 00:51:00,46.0,45.0,29.44,SSE,157,0.0,0.0,97,0.00,,,0.00,Rainwise IP-100,2013-10-01 04:51:00,
2013-10-01 00:56:00,46.0,45.0,29.43,SSE,157,0.0,0.0,97,0.00,,,0.00,Rainwise IP-100,2013-10-01 04:56:00,
2013-10-01 01:00:00,46.0,45.0,29.43,SSE,157,0.0,0.0,97,0.00,,,0.00,Rainwise IP-100,2013-10-01 05:00:00,
2013-10-01 01:05:00,46.0,45.0,29.43,SSE,157,0.0,0.0,97,0.00,,,0.00,Rainwise IP-100,2013-10-01 05:05:00,
2013-10-01 01:10:00,46.0,45.0,29.43,SSE,157,0.0,0.0,97,0.00,,,0.00,Rainwise IP-100,2013-10-01 05:10:00,
2013-10-01 01:15:00,45.0,44.0,29.43,SSE,157,0.0,0.0,97,0.00,,,0.00,Rainwise IP-100,2013-10-01 05:15:00,
2013-10-01 01:20:00,45.0,44.0,29.43,SSE,157,0.0,0.0,97,0.00,,,0.00,Rainwise IP-100,2013-10-01 05:20:00,
2013-10-01 01:25:00,45.0,44.0,29.43,SSE,157,0.0,0.0,97,0.00,,,0.00,Rainwise IP-100,2013-10-01 05:25:00,
2013-10-01 01:30:00,45.0,44.0,29.43,SSE,157,0.0,0.0,97,0.00,,,0.00,Rainwise IP-100,2013-10-01 05:30:00,
2013-10-01 01:35:00,45.0,44.0,29.43,SSE,157,0.0,0.0,97,0.00,,,0.00,Rainwise IP-100,2013-10-01 05:35:00,
2013-10-01 01:40:00,45.0,44.0,29.43,SSE,157,0.0,0.0,97,0.00,,,0.00,Rainwise IP-100,2013-10-01 05:40:00,
2013-10-01 01:45:00,45.0,44.0,29.43,SSE,157,0.0,0.0,97,0.00,,,0.00,Rainwise IP-100,2013-10-01 05:45:00,
2013-10-01 01:50:00,45.0,44.0,29.43,SSE,157,0.0,0.0,97,0.00,,,0.00,Rainwise IP-100,2013-10-01 05:50:00,
2013-10-01 01:55:00,45.0,44.0,29.43,SSE,157,0.0,0.0,97,0.00,,,0.00,Rainwise IP-100,2013-10-01 05:55:00,
2013-10-01 02:00:00,45.0,44.0,29.43,SSE,157,0.0,0.0,97,0.00,,,0.00,Rainwise IP-100,2013-10-01 06:00:00,
2013-10-01 02:05:00,45.0,44.0,29.43,SSE,157,0.0,0.0,97,0.00,,,0.00,Rainwise IP-100,2013-10-01 06:05:00,
2013-10-01 02:10:00,45.0,44.0,29.43,SSE,157,0.0,0.0,97,0.00,,,0.00,Rainwise IP-100,2013-10-01 06:10:00,
2013-10-01 02:15:00,45.0,44.0,29.43,SSE,157,0.0,0.0,97,0.00,,,0.00,Rainwise IP-100,2013-10-01 06:15:00,
2013-10-01 02:20:00,45.0,44.0,29.42,SSE,157,0.0,0.0,97,0.00,,,0.00,Rainwise IP-100,2013-10-01 06:20:00,
2013-10-01 02:25:00,45.0,44.0,29.42,SSE,157,0.0,0.0,97,0.00,,,0.00,Rainwise IP-100,2013-10-01 06:25:00,
2013-10-01 02:30:00,44.0,43.0,29.42,SSE,157,0.0,0.0,97,0.00,,,0.00,Rainwise IP-100,2013-10-01 06:30:00,
2013-10-01 02:34:00,44.0,43.0,29.42,SSE,157,0.0,0.0,97,0.00,,,0.00,Rainwise IP-100,2013-10-01 06:34:00,
2013-10-01 02:39:00,44.0,43.0,29.42,SSE,157,0.0,0.0,97,0.00,,,0.00,Rainwise IP-100,2013-10-01 06:39:00,
2013-10-01 02:44:00,44.0,43.0,29.41,SSE,157,0.0,0.0,97,0.00,,,0.00,Rainwise IP-100,2013-10-01 06:44:00,
2013-10-01 02:49:00,44.0,43.0,29.41,SSE,157,0.0,0.0,97,0.00,,,0.00,Rainwise IP-100,2013-10-01 06:49:00,
2013-10-01 02:54:00,44.0,43.0,29.41,SSE,157,0.0,0.0,97,0.00,,,0.00,Rainwise IP-100,2013-10-01 06:54:00,
2013-10-01 02:59:00,44.0,43.0,29.42,SSE,157,0.0,0.0,97,0.00,,,0.00,Rainwise IP-100,2013-10-01 06:59:00,
2013-10-01 03:01:00,44.0,43.0,29.42,SSE,157,0.0,0.0,97,0.00,,,0.00,Rainwise IP-100,2013-10-01 07:01:00,
2013-10-01 03:06:00,44.0,43.0,29.42,SSE,157,0.0,0.0,97,0.00,,,0.00,Rainwise IP-100,2013-10-01 07:06:00,
2013-10-01 03:11:00,44.0,43.0,29.42,SSE,157,0.0,0.0,97,0.00,,,0.00,Rainwise IP-100,2013-10-01 07:11:00,
2013-10-01 03:16:00,44.0,43.0,29.42,SSE,157,0.0,0.0,97,0.00,,,0.00,Rainwise IP-100,2013-10-01 07:16:00,
2013-10-01 03:21:00,44.0,43.0,29.42,SSE,157,0.0,0.0,97,0.00,,,0.00,Rainwise IP-100,2013-10-01 07:21:00,
2013-10-01 03:26:00,44.0,43.0,29.41,SSE,157,0.0,0.0,97,0.00,,,0.00,Rainwise IP-100,2013-10-01 07:26:00,
2013-10-01 03:31:00,44.0,43.0,29.41,SSE,157,0.0,0.0,97,0.00,,,0.00,Rainwise IP-100,2013-10-01 07:31:00,
2013-10-01 03:36:00,44.0,43.0,29.41,SSE,157,0.0,0.0,97,0.00,,,0.00,Rainwise IP-100,2013-10-01 07:36:00,
2013-10-01 03:41:00,44.0,43.0,29.41,SSE,157,0.0,0.0,97,0.00,,,0.00,Rainwise IP-100,2013-10-01 07:41:00,
2013-10-01 03:46:00,44.0,43.0,29.41,WSW,247,2.0,0.0,97,0.00,,,0.00,Rainwise IP-100,2013-10-01 07:46:00,
2013-10-01 03:51:00,45.0,44.0,29.41,WSW,247,1.0,3.0,97,0.00,,,0.00,Rainwise IP-100,2013-10-01 07:51:00,
2013-10-01 03:56:00,45.0,44.0,29.40,WSW,247,3.0,3.0,97,0.00,,,0.00,Rainwise IP-100,2013-10-01 07:56:00,
2013-10-01 04:01:00,45.0,44.0,29.40,WSW,247,2.0,3.0,97,0.00,,,0.00,Rainwise IP-100,2013-10-01 08:01:00,
2013-10-01 04:06:00,45.0,44.0,29.40,WSW,247,3.0,3.0,97,0.00,,,0.00,Rainwise IP-100,2013-10-01 08:06:00,
2013-10-01 04:11:00,46.0,45.0,29.40,WSW,247,2.0,3.0,97,0.00,,,0.00,Rainwise IP-100,2013-10-01 08:11:00,
2013-10-01 04:16:00,46.0,45.0,29.40,WSW,247,1.0,3.0,97,0.00,,,0.00,Rainwise IP-100,2013-10-01 08:16:00,
2013-10-01 04:21:00,46.0,45.0,29.40,WSW,247,1.0,3.0,97,0.00,,,0.00,Rainwise IP-100,2013-10-01 08:21:00,
2013-10-01 04:26:00,46.0,45.0,29.40,WSW,247,2.0,3.0,97,0.00,,,0.00,Rainwise IP-100,2013-10-01 08:26:00,
2013-10-01 04:31:00,46.0,45.0,29.40,West,270,2.0,5.0,97,0.00,,,0.00,Rainwise IP-100,2013-10-01 08:31:00,
2013-10-01 04:36:00,47.0,46.0,29.39,West,270,0.0,5.0,97,0.00,,,0.00,Rainwise IP-100,2013-10-01 08:36:00,
2013-10-01 04:41:00,47.0,46.0,29.39,West,270,0.0,1.0,97,0.00,,,0.00,Rainwise IP-100,2013-10-01 08:41:00,
2013-10-01 04:46:00,47.0,46.0,29.39,West,270,2.0,4.0,97,0.00,,,0.00,Rainwise IP-100,2013-10-01 08:46:00,
2013-10-01 04:51:00,47.0,46.0,29.39,West,270,2.0,5.0,97,0.00,,,0.00,Rainwise IP-100,2013-10-01 08:51:00,
2013-10-01 04:56:00,47.0,46.0,29.40,West,270,2.0,2.0,97,0.00,,,0.00,Rainwise IP-100,2013-10-01 08:56:00,
2013-10-01 05:01:00,47.0,46.0,29.40,West,270,2.0,3.0,97,0.00,,,0.00,Rainwise IP-100,2013-10-01 09:01:00,
2013-10-01 05:06:00,47.0,46.0,29.39,West,270,1.0,3.0,97,0.00,,,0.00,Rainwise IP-100,2013-10-01 09:06:00,
2013-10-01 05:11:00,47.0,46.0,29.39,West,270,2.0,2.0,97,0.00,,,0.00,Rainwise IP-100,2013-10-01 09:11:00,
2013-10-01 05:16:00,47.0,46.0,29.40,NW,315,1.0,3.0,97,0.00,,,0.00,Rainwise IP-100,2013-10-01 09:16:00,
2013-10-01 05:21:00,47.0,46.0,29.40,NW,315,1.0,3.0,97,0.00,,,0.00,Rainwise IP-100,2013-10-01 09:21:00,
2013-10-01 05:26:00,47.0,46.0,29.39,NW,315,0.0,2.0,97,0.00,,,0.00,Rainwise IP-100,2013-10-01 09:26:00,
2013-10-01 05:31:00,47.0,46.0,29.39,NE,45,0.0,2.0,97,0.00,,,0.00,Rainwise IP-100,2013-10-01 09:31:00,
2013-10-01 05:36:00,47.0,46.0,29.40,East,90,0.0,3.0,97,0.00,,,0.00,Rainwise IP-100,2013-10-01 09:36:00,
2013-10-01 05:41:00,47.0,46.0,29.40,East,90,0.0,0.0,97,0.00,,,0.00,Rainwise IP-100,2013-10-01 09:41:00,
2013-10-01 05:46:00,47.0,46.0,29.40,SW,225,1.0,2.0,97,0.00,,,0.00,Rainwise IP-100,2013-10-01 09:46:00,
2013-10-01 05:51:00,47.0,46.0,29.40,SW,225,1.0,3.0,97,0.00,,,0.00,Rainwise IP-100,2013-10-01 09:51:00,
2013-10-01 05:56:00,47.0,46.0,29.40,West,270,1.0,3.0,97,0.00,,,0.00,Rainwise IP-100,2013-10-01 09:56:00,
2013-10-01 06:01:00,47.0,46.0,29.40,West,270,2.0,6.0,97,0.00,,,0.00,Rainwise IP-100,2013-10-01 10:01:00,
2013-10-01 06:06:00,47.0,46.0,29.41,West,270,2.0,6.0,97,0.00,,,0.00,Rainwise IP-100,2013-10-01 10:06:00,
2013-10-01 06:11:00,47.0,46.0,29.41,WNW,292,1.0,5.0,97,0.00,,,0.00,Rainwise IP-100,2013-10-01 10:11:00,
2013-10-01 06:16:00,47.0,46.0,29.41,WNW,292,0.0,3.0,97,0.00,,,0.00,Rainwise IP-100,2013-10-01 10:16:00,
2013-10-01 06:21:00,47.0,46.0,29.41,NW,315,2.0,3.0,97,0.00,,,0.00,Rainwise IP-100,2013-10-01 10:21:00,
2013-10-01 06:26:00,48.0,47.0,29.41,NW,315,2.0,3.0,97,0.00,,,0.00,Rainwise IP-100,2013-10-01 10:26:00,
2013-10-01 06:31:00,48.0,47.0,29.41,NW,315,0.0,3.0,97,0.00,,,0.00,Rainwise IP-100,2013-10-01 10:31:00,
2013-10-01 06:36:00,48.0,47.0,29.41,NW,315,1.0,2.0,97,0.00,,,0.00,Rainwise IP-100,2013-10-01 10:36:00,
2013-10-01 06:41:00,47.0,46.0,29.41,WNW,292,1.0,2.0,97,0.00,,,0.00,Rainwise IP-100,2013-10-01 10:41:00,
2013-10-01 06:46:00,47.0,46.0,29.41,WNW,292,1.0,3.0,97,0.00,,,0.00,Rainwise IP-100,2013-10-01 10:46:00,
2013-10-01 06:52:00,47.0,46.0,29.41,West,270,5.0,5.0,97,0.00,,,0.00,Rainwise IP-100,2013-10-01 10:52:00,
2013-10-01 06:57:00,48.0,47.0,29.41,West,270,3.0,5.0,97,0.00,,,0.00,Rainwise IP-100,2013-10-01 10:57:00,
2013-10-01 07:02:00,47.0,46.0,29.41,West,270,0.0,3.0,97,0.00,,,0.00,Rainwise IP-100,2013-10-01 11:02:00,
2013-10-01 07:07:00,47.0,46.0,29.41,West,270,0.0,0.0,97,0.00,,,0.00,Rainwise IP-100,2013-10-01 11:07:00,
2013-10-01 07:12:00,47.0,46.0,29.41,West,270,0.0,0.0,97,0.00,,,0.00,Rainwise IP-100,2013-10-01 11:12:00,
2013-10-01 07:17:00,47.0,46.0,29.42,West,270,0.0,0.0,97,0.00,,,0.00,Rainwise IP-100,2013-10-01 11:17:00,
2013-10-01 07:22:00,47.0,46.0,29.42,West,270,0.0,0.0,97,0.00,,,0.00,Rainwise IP-100,2013-10-01 11:22:00,
2013-10-01 07:27:00,47.0,46.0,29.42,West,270,0.0,0.0,97,0.00,,,0.00,Rainwise IP-100,2013-10-01 11:27:00,
2013-10-01 07:32:00,47.0,46.0,29.42,West,270,0.0,1.0,97,0.00,,,0.00,Rainwise IP-100,2013-10-01 11:32:00,
2013-10-01 07:37:00,48.0,47.0,29.41,West,270,1.0,2.0,97,0.00,,,0.00,Rainwise IP-100,2013-10-01 11:37:00,
2013-10-01 07:42:00,48.0,47.0,29.41,West,270,0.0,2.0,97,0.00,,,0.00,Rainwise IP-100,2013-10-01 11:42:00,
2013-10-01 07:47:00,48.0,47.0,29.42,West,270,0.0,0.0,97,0.00,,,0.00,Rainwise IP-100,2013-10-01 11:47:00,
2013-10-01 07:52:00,49.0,48.0,29.42,West,270,0.0,0.0,97,0.00,,,0.00,Rainwise IP-100,2013-10-01 11:52:00,
2013-10-01 07:57:00,49.0,48.0,29.42,West,270,0.0,0.0,97,0.00,,,0.00,Rainwise IP-100,2013-10-01 11:57:00,
2013-10-01 08:02:00,50.0,49.0,29.42,West,270,0.0,0.0,97,0.00,,,0.00,Rainwise IP-100,2013-10-01 12:02:00,
2013-10-01 08:07:00,50.0,49.0,29.41,West,270,0.0,0.0,97,0.00,,,0.00,Rainwise IP-100,2013-10-01 12:07:00,
2013-10-01 08:12:00,50.0,49.0,29.41,West,270,0.0,0.0,97,0.00,,,0.00,Rainwise IP-100,2013-10-01 12:12:00,
2013-10-01 08:17:00,51.0,50.0,29.41,West,270,0.0,1.0,97,0.00,,,0.00,Rainwise IP-100,2013-10-01 12:17:00,
2013-10-01 08:22:00,51.0,50.0,29.41,West,270,1.0,2.0,97,0.00,,,0.00,Rainwise IP-100,2013-10-01 12:22:00,
2013-10-01 08:27:00,51.0,50.0,29.41,West,270,1.0,4.0,97,0.00,,,0.00,Rainwise IP-100,2013-10-01 12:27:00,
2013-10-01 08:32:00,52.0,51.0,29.41,West,270,3.0,4.0,97,0.00,,,0.00,Rainwise IP-100,2013-10-01 12:32:00,
2013-10-01 08:37:00,52.0,51.0,29.41,West,270,3.0,4.0,97,0.00,,,0.00,Rainwise IP-100,2013-10-01 12:37:00,
2013-10-01 08:42:00,52.0,51.0,29.41,NW,315,1.0,6.0,97,0.00,,,0.00,Rainwise IP-100,2013-10-01 12:42:00,
2013-10-01 08:47:00,52.0,51.0,29.41,NW,315,2.0,2.0,97,0.00,,,0.00,Rainwise IP-100,2013-10-01 12:47:00,
2013-10-01 08:52:00,53.0,52.0,29.41,NNW,337,5.0,7.0,97,0.00,,,0.00,Rainwise IP-100,2013-10-01 12:52:00,
2013-10-01 08:57:00,53.0,52.0,29.41,NNW,337,5.0,7.0,97,0.00,,,0.00,Rainwise IP-100,2013-10-01 12:57:00,
2013-10-01 09:02:00,53.0,52.0,29.41,NW,315,6.0,7.0,97,0.00,,,0.00,Rainwise IP-100,2013-10-01 13:02:00,
2013-10-01 09:07:00,55.0,54.0,29.41,NNW,337,4.0,7.0,97,0.00,,,0.00,Rainwise IP-100,2013-10-01 13:07:00,
2013-10-01 09:12:00,55.0,54.0,29.41,NW,315,9.0,11.0,97,0.00,,,0.00,Rainwise IP-100,2013-10-01 13:12:00,
2013-10-01 09:17:00,57.0,56.0,29.41,NNW,337,3.0,11.0,98,0.00,,,0.00,Rainwise IP-100,2013-10-01 13:17:00,
2013-10-01 09:22:00,58.0,57.0,29.41,NNW,337,6.0,6.0,95,0.00,,,0.00,Rainwise IP-100,2013-10-01 13:22:00,
2013-10-01 09:27:00,58.0,57.0,29.41,NNW,337,6.0,7.0,95,0.00,,,0.00,Rainwise IP-100,2013-10-01 13:27:00,
2013-10-01 09:32:00,59.0,57.0,29.41,North,360,6.0,7.0,93,0.00,,,0.00,Rainwise IP-100,2013-10-01 13:32:00,
2013-10-01 09:37:00,60.0,57.0,29.42,WNW,292,6.0,7.0,92,0.00,,,0.00,Rainwise IP-100,2013-10-01 13:37:00,
2013-10-01 09:42:00,60.0,57.0,29.42,WNW,292,6.0,8.0,92,0.00,,,0.00,Rainwise IP-100,2013-10-01 13:42:00,
2013-10-01 09:47:00,60.0,57.0,29.42,NE,45,1.0,8.0,93,0.00,,,0.00,Rainwise IP-100,2013-10-01 13:47:00,
2013-10-01 09:52:00,60.0,57.0,29.42,NE,45,1.0,6.0,93,0.00,,,0.00,Rainwise IP-100,2013-10-01 13:52:00,
2013-10-01 09:57:00,62.0,56.0,29.42,North,360,7.0,8.0,82,0.00,,,0.00,Rainwise IP-100,2013-10-01 13:57:00,
2013-10-01 10:03:00,62.0,57.0,29.42,North,360,6.0,7.0,86,0.00,,,0.00,Rainwise IP-100,2013-10-01 14:03:00,
2013-10-01 10:08:00,63.0,57.0,29.41,NE,45,8.0,8.0,83,0.00,,,0.00,Rainwise IP-100,2013-10-01 14:08:00,
2013-10-01 10:13:00,63.0,56.0,29.41,North,360,5.0,9.0,77,0.00,,,0.00,Rainwise IP-100,2013-10-01 14:13:00,
2013-10-01 10:18:00,63.0,56.0,29.41,North,360,6.0,6.0,77,0.00,,,0.00,Rainwise IP-100,2013-10-01 14:18:00,
2013-10-01 10:23:00,63.0,56.0,29.41,North,360,6.0,6.0,77,0.00,,,0.00,Rainwise IP-100,2013-10-01 14:23:00,
2013-10-01 10:28:00,63.0,56.0,29.41,North,360,5.0,6.0,77,0.00,,,0.00,Rainwise IP-100,2013-10-01 14:28:00,
2013-10-01 10:33:00,63.0,56.0,29.41,North,360,6.0,6.0,77,0.00,,,0.00,Rainwise IP-100,2013-10-01 14:33:00,
2013-10-01 10:38:00,66.0,53.0,29.41,NNW,337,7.0,9.0,64,0.00,,,0.00,Rainwise IP-100,2013-10-01 14:38:00,
2013-10-01 10:43:00,66.0,54.0,29.41,NW,315,6.0,9.0,67,0.00,,,0.00,Rainwise IP-100,2013-10-01 14:43:00,
2013-10-01 10:48:00,66.0,54.0,29.41,NW,315,6.0,7.0,67,0.00,,,0.00,Rainwise IP-100,2013-10-01 14:48:00,
2013-10-01 10:53:00,66.0,54.0,29.41,North,360,6.0,7.0,67,0.00,,,0.00,Rainwise IP-100,2013-10-01 14:53:00,
2013-10-01 10:58:00,66.0,54.0,29.41,NW,315,6.0,7.0,67,0.00,,,0.00,Rainwise IP-100,2013-10-01 14:58:00,
2013-10-01 11:03:00,68.0,56.0,29.40,WNW,292,6.0,10.0,66,0.00,,,0.00,Rainwise IP-100,2013-10-01 15:03:00,
2013-10-01 11:08:00,68.0,54.0,29.40,NNW,337,9.0,10.0,63,0.00,,,0.00,Rainwise IP-100,2013-10-01 15:08:00,
2013-10-01 11:13:00,68.0,54.0,29.39,North,360,7.0,10.0,63,0.00,,,0.00,Rainwise IP-100,2013-10-01 15:13:00,
2013-10-01 11:18:00,68.0,54.0,29.39,NW,315,5.0,9.0,61,0.00,,,0.00,Rainwise IP-100,2013-10-01 15:18:00,
2013-10-01 11:23:00,68.0,54.0,29.39,NNW,337,6.0,9.0,61,0.00,,,0.00,Rainwise IP-100,2013-10-01 15:23:00,
2013-10-01 11:28:00,69.0,54.0,29.39,NNW,337,9.0,9.0,61,0.00,,,0.00,Rainwise IP-100,2013-10-01 15:28:00,
2013-10-01 11:33:00,69.0,53.0,29.39,NNW,337,7.0,11.0,57,0.00,,,0.00,Rainwise IP-100,2013-10-01 15:33:00,
2013-10-01 11:38:00,69.0,53.0,29.39,North,360,9.0,10.0,57,0.00,,,0.00,Rainwise IP-100,2013-10-01 15:38:00,
2013-10-01 11:43:00,70.0,52.0,29.38,North,360,8.0,10.0,53,0.00,,,0.00,Rainwise IP-100,2013-10-01 15:43:00,
2013-10-01 11:48:00,70.0,51.0,29.37,North,360,9.0,13.0,51,0.00,,,0.00,Rainwise IP-100,2013-10-01 15:48:00,
2013-10-01 11:53:00,70.0,51.0,29.37,NW,315,11.0,12.0,51,0.00,,,0.00,Rainwise IP-100,2013-10-01 15:53:00,
2013-10-01 11:58:00,70.0,53.0,29.37,WNW,292,4.0,12.0,54,0.00,,,0.00,Rainwise IP-100,2013-10-01 15:58:00,
2013-10-01 12:03:00,71.0,50.0,29.37,NW,315,5.0,7.0,48,0.00,,,0.00,Rainwise IP-100,2013-10-01 16:03:00,
2013-10-01 12:08:00,71.0,50.0,29.37,NNW,337,9.0,10.0,47,0.00,,,0.00,Rainwise IP-100,2013-10-01 16:08:00,
2013-10-01 12:13:00,71.0,50.0,29.37,NNE,22,7.0,10.0,47,0.00,,,0.00,Rainwise IP-100,2013-10-01 16:13:00,
2013-10-01 12:18:00,71.0,49.0,29.36,NNW,337,7.0,10.0,46,0.00,,,0.00,Rainwise IP-100,2013-10-01 16:18:00,
2013-10-01 12:23:00,71.0,49.0,29.36,NNW,337,7.0,7.0,46,0.00,,,0.00,Rainwise IP-100,2013-10-01 16:23:00,
2013-10-01 12:28:00,71.0,49.0,29.36,NNW,337,7.0,7.0,46,0.00,,,0.00,Rainwise IP-100,2013-10-01 16:28:00,
2013-10-01 12:33:00,73.0,50.0,29.35,NNW,337,3.0,8.0,45,0.00,,,0.00,Rainwise IP-100,2013-10-01 16:33:00,
2013-10-01 12:34:00,73.0,50.0,29.35,NNW,337,3.0,8.0,45,0.00,,,0.00,Rainwise IP-100,2013-10-01 16:34:00,
2013-10-01 12:39:00,73.0,48.0,29.35,North,360,4.0,8.0,42,0.00,,,0.00,Rainwise IP-100,2013-10-01 16:39:00,
2013-10-01 12:44:00,73.0,50.0,29.35,NNW,337,2.0,8.0,45,0.00,,,0.00,Rainwise IP-100,2013-10-01 16:44:00,
2013-10-01 12:49:00,73.0,48.0,29.35,NW,315,8.0,8.0,41,0.00,,,0.00,Rainwise IP-100,2013-10-01 16:49:00,
2013-10-01 12:54:00,73.0,49.0,29.35,NNW,337,9.0,10.0,43,0.00,,,0.00,Rainwise IP-100,2013-10-01 16:54:00,
2013-10-01 12:59:00,73.0,49.0,29.35,NNW,337,9.0,10.0,43,0.00,,,0.00,Rainwise IP-100,2013-10-01 16:59:00,
2013-10-01 13:04:00,73.0,48.0,29.35,North,360,3.0,10.0,42,0.00,,,0.00,Rainwise IP-100,2013-10-01 17:04:00,
2013-10-01 13:09:00,73.0,49.0,29.35,NW,315,2.0,5.0,43,0.00,,,0.00,Rainwise IP-100,2013-10-01 17:09:00,
2013-10-01 13:14:00,73.0,48.0,29.35,NNE,22,2.0,9.0,41,0.00,,,0.00,Rainwise IP-100,2013-10-01 17:14:00,
2013-10-01 13:19:00,73.0,48.0,29.35,NNE,22,2.0,9.0,41,0.00,,,0.00,Rainwise IP-100,2013-10-01 17:19:00,
2013-10-01 13:24:00,73.0,49.0,29.34,NW,315,9.0,9.0,43,0.00,,,0.00,Rainwise IP-100,2013-10-01 17:24:00,
2013-10-01 13:29:00,73.0,48.0,29.34,West,270,6.0,9.0,41,0.00,,,0.00,Rainwise IP-100,2013-10-01 17:29:00,
2013-10-01 13:34:00,73.0,48.0,29.34,West,270,6.0,7.0,41,0.00,,,0.00,Rainwise IP-100,2013-10-01 17:34:00,
2013-10-01 13:39:00,74.0,50.0,29.35,NNW,337,6.0,7.0,43,0.00,,,0.00,Rainwise IP-100,2013-10-01 17:39:00,
2013-10-01 13:44:00,74.0,49.0,29.34,WNW,292,6.0,7.0,41,0.00,,,0.00,Rainwise IP-100,2013-10-01 17:44:00,
2013-10-01 13:49:00,74.0,49.0,29.34,NNW,337,6.0,7.0,41,0.00,,,0.00,Rainwise IP-100,2013-10-01 17:49:00,
2013-10-01 13:54:00,73.0,50.0,29.34,NNW,337,6.0,7.0,44,0.00,,,0.00,Rainwise IP-100,2013-10-01 17:54:00,
2013-10-01 13:59:00,74.0,49.0,29.34,North,360,9.0,10.0,41,0.00,,,0.00,Rainwise IP-100,2013-10-01 17:59:00,
2013-10-01 14:04:00,74.0,50.0,29.34,North,360,4.0,10.0,43,0.00,,,0.00,Rainwise IP-100,2013-10-01 18:04:00,
2013-10-01 14:09:00,74.0,50.0,29.34,NW,315,5.0,6.0,43,0.00,,,0.00,Rainwise IP-100,2013-10-01 18:09:00,
2013-10-01 14:14:00,75.0,51.0,29.33,NNW,337,4.0,7.0,43,0.00,,,0.00,Rainwise IP-100,2013-10-01 18:14:00,
2013-10-01 14:19:00,75.0,51.0,29.33,North,360,4.0,9.0,43,0.00,,,0.00,Rainwise IP-100,2013-10-01 18:19:00,
2013-10-01 14:24:00,75.0,49.0,29.33,NNW,337,5.0,8.0,40,0.00,,,0.00,Rainwise IP-100,2013-10-01 18:24:00,
2013-10-01 14:29:00,75.0,49.0,29.33,NNW,337,5.0,8.0,40,0.00,,,0.00,Rainwise IP-100,2013-10-01 18:29:00,
2013-10-01 14:34:00,74.0,50.0,29.34,NNW,337,3.0,9.0,44,0.00,,,0.00,Rainwise IP-100,2013-10-01 18:34:00,
2013-10-01 14:39:00,74.0,51.0,29.34,NNW,337,1.0,6.0,45,0.00,,,0.00,Rainwise IP-100,2013-10-01 18:39:00,
2013-10-01 14:44:00,74.0,51.0,29.34,NNW,337,1.0,1.0,45,0.00,,,0.00,Rainwise IP-100,2013-10-01 18:44:00,
2013-10-01 14:49:00,74.0,51.0,29.34,NNW,337,1.0,1.0,45,0.00,,,0.00,Rainwise IP-100,2013-10-01 18:49:00,
2013-10-01 14:54:00,75.0,50.0,29.34,WNW,292,2.0,6.0,41,0.00,,,0.00,Rainwise IP-100,2013-10-01 18:54:00,
2013-10-01 14:59:00,75.0,50.0,29.34,WNW,292,4.0,6.0,41,0.00,,,0.00,Rainwise IP-100,2013-10-01 18:59:00,
2013-10-01 15:04:00,75.0,49.0,29.34,North,360,7.0,11.0,40,0.00,,,0.00,Rainwise IP-100,2013-10-01 19:04:00,
2013-10-01 15:09:00,75.0,49.0,29.34,North,360,7.0,10.0,40,0.00,,,0.00,Rainwise IP-100,2013-10-01 19:09:00,
2013-10-01 15:14:00,75.0,49.0,29.34,North,360,7.0,10.0,40,0.00,,,0.00,Rainwise IP-100,2013-10-01 19:14:00,
2013-10-01 15:19:00,75.0,49.0,29.34,North,360,7.0,10.0,40,0.00,,,0.00,Rainwise IP-100,2013-10-01 19:19:00,
2013-10-01 15:24:00,75.0,49.0,29.34,North,360,7.0,10.0,40,0.00,,,0.00,Rainwise IP-100,2013-10-01 19:24:00,
2013-10-01 15:29:00,76.0,51.0,29.33,NNW,337,0.0,10.0,42,0.00,,,0.00,Rainwise IP-100,2013-10-01 19:29:00,
2013-10-01 15:34:00,76.0,51.0,29.33,West,270,1.0,3.0,42,0.00,,,0.00,Rainwise IP-100,2013-10-01 19:34:00,
2013-10-01 15:39:00,77.0,53.0,29.33,NW,315,1.0,2.0,43,0.00,,,0.00,Rainwise IP-100,2013-10-01 19:39:00,
2013-10-01 15:44:00,77.0,52.0,29.33,NW,315,2.0,3.0,42,0.00,,,0.00,Rainwise IP-100,2013-10-01 19:44:00,
2013-10-01 15:49:00,77.0,52.0,29.32,NW,315,4.0,6.0,41,0.00,,,0.00,Rainwise IP-100,2013-10-01 19:49:00,
2013-10-01 15:54:00,77.0,52.0,29.32,NNW,337,3.0,6.0,41,0.00,,,0.00,Rainwise IP-100,2013-10-01 19:54:00,
2013-10-01 15:59:00,77.0,52.0,29.32,NNW,337,3.0,5.0,41,0.00,,,0.00,Rainwise IP-100,2013-10-01 19:59:00,
2013-10-01 16:04:00,77.0,52.0,29.32,NNW,337,3.0,4.0,41,0.00,,,0.00,Rainwise IP-100,2013-10-01 20:04:00,
2013-10-01 16:09:00,77.0,52.0,29.32,NW,315,2.0,6.0,42,0.00,,,0.00,Rainwise IP-100,2013-10-01 20:09:00,
2013-10-01 16:14:00,77.0,52.0,29.32,NW,315,2.0,6.0,42,0.00,,,0.00,Rainwise IP-100,2013-10-01 20:14:00,
2013-10-01 16:19:00,77.0,52.0,29.32,NW,315,2.0,6.0,42,0.00,,,0.00,Rainwise IP-100,2013-10-01 20:19:00,
2013-10-01 16:24:00,77.0,52.0,29.32,WNW,292,2.0,6.0,42,0.00,,,0.00,Rainwise IP-100,2013-10-01 20:24:00,
2013-10-01 16:29:00,76.0,53.0,29.33,NW,315,4.0,7.0,44,0.00,,,0.00,Rainwise IP-100,2013-10-01 20:29:00,
2013-10-01 16:34:00,76.0,53.0,29.33,NW,315,7.0,7.0,44,0.00,,,0.00,Rainwise IP-100,2013-10-01 20:34:00,
2013-10-01 16:39:00,76.0,53.0,29.33,NW,315,6.0,7.0,44,0.00,,,0.00,Rainwise IP-100,2013-10-01 20:39:00,
2013-10-01 16:44:00,76.0,53.0,29.33,NW,315,6.0,7.0,44,0.00,,,0.00,Rainwise IP-100,2013-10-01 20:44:00,
2013-10-01 16:49:00,76.0,53.0,29.33,NW,315,6.0,7.0,44,0.00,,,0.00,Rainwise IP-100,2013-10-01 20:49:00,
2013-10-01 16:54:00,76.0,53.0,29.33,NW,315,6.0,7.0,44,0.00,,,0.00,Rainwise IP-100,2013-10-01 20:54:00,
2013-10-01 16:59:00,76.0,53.0,29.33,NW,315,6.0,7.0,44,0.00,,,0.00,Rainwise IP-100,2013-10-01 20:59:00,
2013-10-01 17:04:00,76.0,53.0,29.33,NW,315,6.0,7.0,44,0.00,,,0.00,Rainwise IP-100,2013-10-01 21:04:00,
2013-10-01 17:09:00,75.0,53.0,29.33,NW,315,1.0,7.0,47,0.00,,,0.00,Rainwise IP-100,2013-10-01 21:09:00,
2013-10-01 17:14:00,75.0,53.0,29.33,NW,315,1.0,3.0,47,0.00,,,0.00,Rainwise IP-100,2013-10-01 21:14:00,
2013-10-01 17:19:00,75.0,53.0,29.33,West,270,5.0,6.0,45,0.00,,,0.00,Rainwise IP-100,2013-10-01 21:19:00,
2013-10-01 17:24:00,75.0,53.0,29.33,West,270,5.0,6.0,45,0.00,,,0.00,Rainwise IP-100,2013-10-01 21:24:00,
2013-10-01 17:29:00,75.0,53.0,29.33,West,270,5.0,6.0,45,0.00,,,0.00,Rainwise IP-100,2013-10-01 21:29:00,
2013-10-01 17:34:00,73.0,51.0,29.33,WSW,247,0.0,6.0,46,0.00,,,0.00,Rainwise IP-100,2013-10-01 21:34:00,
2013-10-01 17:39:00,73.0,51.0,29.33,WSW,247,0.0,0.0,46,0.00,,,0.00,Rainwise IP-100,2013-10-01 21:39:00,
2013-10-01 17:44:00,73.0,51.0,29.33,WSW,247,0.0,0.0,46,0.00,,,0.00,Rainwise IP-100,2013-10-01 21:44:00,
2013-10-01 17:49:00,71.0,54.0,29.33,WSW,247,0.0,0.0,57,0.00,,,0.00,Rainwise IP-100,2013-10-01 21:49:00,
2013-10-01 17:54:00,71.0,54.0,29.33,WSW,247,0.0,0.0,57,0.00,,,0.00,Rainwise IP-100,2013-10-01 21:54:00,
2013-10-01 17:59:00,68.0,57.0,29.33,WSW,247,0.0,0.0,70,0.00,,,0.00,Rainwise IP-100,2013-10-01 21:59:00,
2013-10-01 18:04:00,67.0,57.0,29.34,WSW,247,2.0,0.0,71,0.00,,,0.00,Rainwise IP-100,2013-10-01 22:04:00,
2013-10-01 18:09:00,66.0,56.0,29.34,WSW,247,0.0,2.0,71,0.00,,,0.00,Rainwise IP-100,2013-10-01 22:09:00,
2013-10-01 18:14:00,66.0,57.0,29.34,WSW,247,0.0,2.0,75,0.00,,,0.00,Rainwise IP-100,2013-10-01 22:14:00,
2013-10-01 18:19:00,65.0,57.0,29.34,WSW,247,0.0,2.0,78,0.00,,,0.00,Rainwise IP-100,2013-10-01 22:19:00,
2013-10-01 18:24:00,64.0,58.0,29.34,WSW,247,0.0,2.0,81,0.00,,,0.00,Rainwise IP-100,2013-10-01 22:24:00,
2013-10-01 18:29:00,64.0,58.0,29.34,WSW,247,0.0,1.0,82,0.00,,,0.00,Rainwise IP-100,2013-10-01 22:29:00,
2013-10-01 18:34:00,63.0,56.0,29.35,WSW,247,0.0,0.0,79,0.00,,,0.00,Rainwise IP-100,2013-10-01 22:34:00,
2013-10-01 18:39:00,63.0,58.0,29.35,WSW,247,0.0,0.0,84,0.00,,,0.00,Rainwise IP-100,2013-10-01 22:39:00,
2013-10-01 18:44:00,63.0,58.0,29.35,WSW,247,0.0,0.0,84,0.00,,,0.00,Rainwise IP-100,2013-10-01 22:44:00,
2013-10-01 18:49:00,63.0,58.0,29.35,WSW,247,0.0,0.0,84,0.00,,,0.00,Rainwise IP-100,2013-10-01 22:49:00,
2013-10-01 18:54:00,63.0,58.0,29.35,WSW,247,0.0,0.0,84,0.00,,,0.00,Rainwise IP-100,2013-10-01 22:54:00,
2013-10-01 18:59:00,63.0,58.0,29.35,WSW,247,0.0,0.0,84,0.00,,,0.00,Rainwise IP-100,2013-10-01 22:59:00,
2013-10-01 19:04:00,61.0,58.0,29.34,WSW,247,0.0,0.0,90,0.00,,,0.00,Rainwise IP-100,2013-10-01 23:04:00,
2013-10-01 19:09:00,61.0,59.0,29.35,WSW,247,0.0,0.0,92,0.00,,,0.00,Rainwise IP-100,2013-10-01 23:09:00,
2013-10-01 19:14:00,61.0,59.0,29.35,WSW,247,0.0,0.0,92,0.00,,,0.00,Rainwise IP-100,2013-10-01 23:14:00,
2013-10-01 19:19:00,60.0,57.0,29.35,WSW,247,0.0,0.0,93,0.00,,,0.00,Rainwise IP-100,2013-10-01 23:19:00,
2013-10-01 19:24:00,60.0,58.0,29.35,WSW,247,0.0,0.0,94,0.00,,,0.00,Rainwise IP-100,2013-10-01 23:24:00,
2013-10-01 19:29:00,60.0,58.0,29.35,WSW,247,0.0,0.0,95,0.00,,,0.00,Rainwise IP-100,2013-10-01 23:29:00,
2013-10-01 19:34:00,60.0,58.0,29.35,WSW,247,0.0,0.0,95,0.00,,,0.00,Rainwise IP-100,2013-10-01 23:34:00,
2013-10-01 19:39:00,60.0,58.0,29.35,WSW,247,0.0,0.0,95,0.00,,,0.00,Rainwise IP-100,2013-10-01 23:39:00,
2013-10-01 19:44:00,60.0,58.0,29.35,WSW,247,0.0,0.0,95,0.00,,,0.00,Rainwise IP-100,2013-10-01 23:44:00,
2013-10-01 19:49:00,59.0,58.0,29.35,WSW,247,0.0,0.0,97,0.00,,,0.00,Rainwise IP-100,2013-10-01 23:49:00,
2013-10-01 19:53:00,59.0,58.0,29.35,WSW,247,0.0,0.0,97,0.00,,,0.00,Rainwise IP-100,2013-10-01 23:53:00,
2013-10-01 19:58:00,59.0,58.0,29.35,WSW,247,0.0,0.0,97,0.00,,,0.00,Rainwise IP-100,2013-10-01 23:58:00,
2013-10-01 20:03:00,59.0,58.0,29.35,WSW,247,0.0,0.0,97,0.00,,,0.00,Rainwise IP-100,2013-10-02 00:03:00,
2013-10-01 20:08:00,59.0,58.0,29.35,WSW,247,0.0,0.0,97,0.00,,,0.00,Rainwise IP-100,2013-10-02 00:08:00,
2013-10-01 20:13:00,59.0,58.0,29.35,WSW,247,0.0,0.0,98,0.00,,,0.00,Rainwise IP-100,2013-10-02 00:13:00,
2013-10-01 20:18:00,59.0,58.0,29.35,WSW,247,0.0,0.0,98,0.00,,,0.00,Rainwise IP-100,2013-10-02 00:18:00,
2013-10-01 20:23:00,59.0,58.0,29.35,WSW,247,0.0,0.0,98,0.00,,,0.00,Rainwise IP-100,2013-10-02 00:23:00,
2013-10-01 20:28:00,58.0,57.0,29.36,WSW,247,1.0,1.0,98,0.00,,,0.00,Rainwise IP-100,2013-10-02 00:28:00,
2013-10-01 20:33:00,58.0,57.0,29.36,WSW,247,0.0,1.0,98,0.00,,,0.00,Rainwise IP-100,2013-10-02 00:33:00,
2013-10-01 20:38:00,58.0,57.0,29.36,WSW,247,0.0,0.0,98,0.00,,,0.00,Rainwise IP-100,2013-10-02 00:38:00,
2013-10-01 20:43:00,58.0,57.0,29.36,WSW,247,0.0,0.0,98,0.00,,,0.00,Rainwise IP-100,2013-10-02 00:43:00,
2013-10-01 20:48:00,58.0,57.0,29.36,WSW,247,0.0,0.0,98,0.00,,,0.00,Rainwise IP-100,2013-10-02 00:48:00,
2013-10-01 20:53:00,58.0,57.0,29.36,WSW,247,0.0,0.0,98,0.00,,,0.00,Rainwise IP-100,2013-10-02 00:53:00,
2013-10-01 20:58:00,58.0,57.0,29.36,WSW,247,0.0,0.0,98,0.00,,,0.00,Rainwise IP-100,2013-10-02 00:58:00,
2013-10-01 21:03:00,57.0,56.0,29.35,WSW,247,0.0,2.0,98,0.00,,,0.00,Rainwise IP-100,2013-10-02 01:03:00,
2013-10-01 21:08:00,57.0,56.0,29.35,WSW,247,0.0,0.0,98,0.00,,,0.00,Rainwise IP-100,2013-10-02 01:08:00,
2013-10-01 21:13:00,57.0,56.0,29.35,WSW,247,1.0,2.0,98,0.00,,,0.00,Rainwise IP-100,2013-10-02 01:13:00,
2013-10-01 21:18:00,57.0,56.0,29.35,WSW,247,2.0,2.0,98,0.00,,,0.00,Rainwise IP-100,2013-10-02 01:18:00,
2013-10-01 21:23:00,57.0,56.0,29.35,WSW,247,1.0,2.0,98,0.00,,,0.00,Rainwise IP-100,2013-10-02 01:23:00,
2013-10-01 21:28:00,57.0,56.0,29.35,WSW,247,1.0,2.0,98,0.00,,,0.00,Rainwise IP-100,2013-10-02 01:28:00,
2013-10-01 21:33:00,57.0,56.0,29.35,WSW,247,1.0,2.0,98,0.00,,,0.00,Rainwise IP-100,2013-10-02 01:33:00,
2013-10-01 21:38:00,57.0,56.0,29.35,WSW,247,1.0,2.0,98,0.00,,,0.00,Rainwise IP-100,2013-10-02 01:38:00,
2013-10-01 21:43:00,57.0,56.0,29.35,WSW,247,1.0,2.0,98,0.00,,,0.00,Rainwise IP-100,2013-10-02 01:43:00,
2013-10-01 21:48:00,57.0,56.0,29.35,WSW,247,1.0,2.0,98,0.00,,,0.00,Rainwise IP-100,2013-10-02 01:48:00,
2013-10-01 21:53:00,57.0,56.0,29.35,WSW,247,1.0,2.0,98,0.00,,,0.00,Rainwise IP-100,2013-10-02 01:53:00,
2013-10-01 21:58:00,57.0,56.0,29.35,WSW,247,1.0,2.0,98,0.00,,,0.00,Rainwise IP-100,2013-10-02 01:58:00,
2013-10-01 22:03:00,57.0,56.0,29.35,WSW,247,1.0,2.0,98,0.00,,,0.00,Rainwise IP-100,2013-10-02 02:03:00,
2013-10-01 22:08:00,57.0,56.0,29.35,WSW,247,1.0,2.0,98,0.00,,,0.00,Rainwise IP-100,2013-10-02 02:08:00,
2013-10-01 22:13:00,57.0,56.0,29.35,WSW,247,1.0,2.0,98,0.00,,,0.00,Rainwise IP-100,2013-10-02 02:13:00,
2013-10-01 22:18:00,56.0,55.0,29.35,WSW,247,0.0,2.0,97,0.00,,,0.00,Rainwise IP-100,2013-10-02 02:18:00,
2013-10-01 22:23:00,56.0,55.0,29.35,WSW,247,0.0,0.0,97,0.00,,,0.00,Rainwise IP-100,2013-10-02 02:23:00,
2013-10-01 22:28:00,56.0,55.0,29.35,WSW,247,0.0,0.0,97,0.00,,,0.00,Rainwise IP-100,2013-10-02 02:28:00,
2013-10-01 22:33:00,56.0,55.0,29.35,WSW,247,0.0,0.0,97,0.00,,,0.00,Rainwise IP-100,2013-10-02 02:33:00,
2013-10-01 22:38:00,56.0,55.0,29.35,WSW,247,0.0,0.0,97,0.00,,,0.00,Rainwise IP-100,2013-10-02 02:38:00,
2013-10-01 22:43:00,55.0,54.0,29.35,WSW,247,0.0,1.0,97,0.00,,,0.00,Rainwise IP-100,2013-10-02 02:43:00,
2013-10-01 22:48:00,55.0,54.0,29.35,WSW,247,0.0,1.0,97,0.00,,,0.00,Rainwise IP-100,2013-10-02 02:48:00,
2013-10-01 22:53:00,55.0,54.0,29.35,WSW,247,0.0,1.0,97,0.00,,,0.00,Rainwise IP-100,2013-10-02 02:53:00,
2013-10-01 22:58:00,55.0,54.0,29.35,WSW,247,0.0,1.0,97,0.00,,,0.00,Rainwise IP-100,2013-10-02 02:58:00,
2013-10-01 23:03:00,55.0,54.0,29.35,WSW,247,0.0,0.0,97,0.00,,,0.00,Rainwise IP-100,2013-10-02 03:03:00,
2013-10-01 23:08:00,55.0,54.0,29.35,WSW,247,0.0,2.0,97,0.00,,,0.00,Rainwise IP-100,2013-10-02 03:08:00,
2013-10-01 23:13:00,55.0,54.0,29.35,WSW,247,0.0,0.0,97,0.00,,,0.00,Rainwise IP-100,2013-10-02 03:13:00,
2013-10-01 23:18:00,55.0,54.0,29.35,WSW,247,0.0,1.0,97,0.00,,,0.00,Rainwise IP-100,2013-10-02 03:18:00,
2013-10-01 23:23:00,55.0,54.0,29.35,WSW,247,0.0,1.0,97,0.00,,,0.00,Rainwise IP-100,2013-10-02 03:23:00,
2013-10-01 23:28:00,55.0,54.0,29.35,WSW,247,0.0,1.0,97,0.00,,,0.00,Rainwise IP-100,2013-10-02 03:28:00,
2013-10-01 23:33:00,55.0,54.0,29.35,WSW,247,1.0,2.0,97,0.00,,,0.00,Rainwise IP-100,2013-10-02 03:33:00,
2013-10-01 23:38:00,55.0,54.0,29.34,WSW,247,1.0,2.0,97,0.00,,,0.00,Rainwise IP-100,2013-10-02 03:38:00,
2013-10-01 23:43:00,56.0,55.0,29.34,WSW,247,2.0,3.0,97,0.00,,,0.00,Rainwise IP-100,2013-10-02 03:43:00,
2013-10-01 23:48:00,56.0,55.0,29.34,WSW,247,2.0,3.0,97,0.00,,,0.00,Rainwise IP-100,2013-10-02 03:48:00,
2013-10-01 23:53:00,56.0,55.0,29.34,WSW,247,2.0,3.0,97,0.00,,,0.00,Rainwise IP-100,2013-10-02 03:53:00,
2013-10-01 23:58:00,56.0,55.0,29.34,WSW,247,2.0,3.0,97,0.00,,,0.00,Rainwise IP-100,2013-10-02 03:58:00,